FW8525 Weather Reports


Display with metric or nautical units.
time (UTC)temp
F
wind
direction
speed
MPH
gust
MPH
rain 1hr
in
rain 24hr
in
rain mn
in
humidity
%
barometer
mb
20260508104531 48 0 0.0 0.0 0.00 0.05 0.00 78 1014.9
20260508103037 48 0 0.0 0.0 0.00 0.05 0.00 78 1014.8
20260508101537 49 0 0.0 0.0 0.00 0.05 0.00 78 1014.6
20260508100036 49 0 0.0 6.0 0.00 0.05 0.00 78 1014.4
20260508094533 49 0 0.0 0.0 0.00 0.05 0.00 80 1014.2
20260508093048 50 0 0.0 0.0 0.00 0.05 0.00 81 1014.1
20260508091533 50 0 0.0 0.0 0.00 0.05 0.00 83 1013.9
20260508090053 50 0 0.0 6.0 0.00 0.05 0.00 84 1013.7
20260508084535 50 0 0.0 0.0 0.00 0.05 0.00 86 1013.6
20260508083031 50 0 0.0 0.0 0.00 0.05 0.00 88 1013.4
20260508081531 50 0 0.0 0.0 0.00 0.05 0.00 90 1013.1
20260508080038 49 0 0.0 0.0 0.00 0.05 0.00 90 1013.0
20260508074540 49 0 0.0 0.0 0.00 0.06 0.00 91 1012.7
20260508073033 49 0 0.0 0.0 0.00 0.06 0.00 91 1012.3
20260508071534 49 0 0.0 0.0 0.00 0.06 0.00 91 1012.0
20260508070033 49 0 0.0 0.0 0.00 0.06 0.00 91 1011.8
20260508064535 49 0 0.0 0.0 0.00 0.08 0.00 91 1011.7
20260508063032 48 0 0.0 0.0 0.00 0.08 0.00 91 1011.8
20260508061535 48 0 0.0 0.0 0.00 0.08 0.00 92 1011.8
20260508060033 47 0 0.0 0.0 0.00 0.08 0.00 91 1011.7
20260508054538 48 0 0.0 0.0 0.00 0.08 0.00 91 1011.6
20260508053032 48 0 0.0 0.0 0.00 0.08 0.00 92 1011.7
20260508051536 48 0 0.0 0.0 0.00 0.08 0.00 92 1011.7
20260508050035 47 0 0.0 0.0 0.00 0.08 0.00 93 1011.7
20260508044532 47 0 0.0 0.0 0.00 0.08 0.00 94 1011.7
20260508043036 47 0 0.0 0.0 0.00 0.08 0.00 94 1011.7
20260508041539 47 0 0.0 0.0 0.00 0.08 0.00 94 1011.7
20260508040037 47 0 0.0 0.0 0.00 0.08 0.00 94 1011.4
20260508034539 48 0 0.0 0.0 0.00 0.08 0.08 94 1011.4
20260508033038 48 0 0.0 0.0 0.00 0.08 0.08 94 1011.1
20260508031533 48 0 0.0 0.0 0.00 0.08 0.08 94 1011.4
20260508030039 49 0 0.0 0.0 0.00 0.08 0.08 94 1011.4
20260508024534 49 0 0.0 0.0 0.00 0.08 0.08 94 1011.2
20260508023041 49 0 0.0 0.0 0.00 0.08 0.08 94 1011.3
20260508021535 50 0 0.0 0.0 0.00 0.08 0.08 93 1011.4
20260508020034 50 0 0.0 0.0 0.00 0.08 0.08 93 1011.0
20260508014535 50 0 0.0 0.0 0.00 0.08 0.08 92 1011.0
20260508013033 50 0 0.0 0.0 0.00 0.08 0.08 92 1011.0
20260508011534 51 0 0.0 0.0 0.00 0.08 0.08 91 1010.9
20260508010040 51 0 0.0 0.0 0.00 0.08 0.08 91 1010.7
20260508004534 52 0 0.0 0.0 0.00 0.08 0.08 91 1010.4
20260508003032 52 0 0.0 0.0 0.00 0.08 0.08 90 1010.4
20260508001535 52 0 0.0 0.0 0.00 0.08 0.08 90 1010.1
20260508000034 52 0 0.0 0.0 0.00 0.08 0.08 89 1010.0
20260507234537 52 0 0.0 0.0 0.00 0.08 0.08 89 1009.9
20260507233032 52 0 0.0 0.0 0.00 0.08 0.08 89 1009.9
20260507231539 53 0 0.0 0.0 0.00 0.08 0.08 88 1009.9
20260507230038 53 0 0.0 0.0 0.00 0.08 0.08 87 1010.1
20260507224549 53 0 0.0 0.0 0.00 0.08 0.08 87 1009.8
20260507223040 54 0 0.0 0.0 0.00 0.08 0.08 89 1010.2
20260507221538 53 0 0.0 0.0 0.02 0.08 0.08 90 1010.1
20260507220036 53 0 0.0 0.0 0.02 0.08 0.08 90 1009.9
20260507214538 52 0 0.0 0.0 0.02 0.08 0.08 88 1010.1
20260507213036 53 0 0.0 0.0 0.01 0.07 0.07 87 1010.2
20260507211532 54 0 0.0 0.0 0.02 0.06 0.06 87 1010.0
20260507210103 54 0 0.0 0.0 0.02 0.06 0.06 86 1010.3
20260507204530 55 0 0.0 0.0 0.02 0.06 0.06 84 1009.8
20260507203032 55 0 0.0 0.0 0.03 0.06 0.06 82 1010.2
20260507201536 56 0 0.0 0.0 0.01 0.04 0.04 81 1009.7
20260507200049 56 0 0.0 0.0 0.01 0.04 0.04 79 1009.9
20260507194534 56 0 0.0 0.0 0.01 0.04 0.04 79 1009.8
20260507193100 57 0 0.0 0.0 0.00 0.03 0.03 74 1010.2
20260507191532 57 0 0.0 0.0 0.00 0.03 0.03 75 1010.1
20260507190038 57 0 0.0 0.0 0.00 0.03 0.03 78 1010.2
20260507184534 57 0 0.0 0.0 0.00 0.03 0.03 74 1010.6
20260507183039 57 0 0.0 0.0 0.00 0.03 0.03 72 1010.7
20260507181533 58 0 0.0 0.0 0.00 0.03 0.03 70 1010.9
20260507180036 58 0 0.0 0.0 0.00 0.03 0.03 71 1010.7
20260507174534 58 0 0.0 0.0 0.00 0.03 0.03 71 1011.0
20260507173034 58 0 0.0 0.0 0.00 0.03 0.03 74 1011.1
20260507171531 58 0 0.0 0.0 0.00 0.03 0.03 75 1011.0
20260507170040 58 0 0.0 0.0 0.00 0.03 0.03 75 1011.4
20260507164538 58 0 0.0 0.0 0.00 0.03 0.03 74 1011.7
20260507163038 58 0 0.0 0.0 0.00 0.03 0.03 74 1011.6
20260507161534 58 0 0.0 0.0 0.00 0.03 0.03 74 1012.1
20260507160054 58 0 0.0 0.0 0.00 0.03 0.03 74 1012.3
20260507154532 58 0 0.0 0.0 0.00 0.03 0.03 73 1012.5
20260507153035 58 0 0.0 0.0 0.00 0.03 0.03 77 1012.5
20260507151535 58 0 0.0 3.0 0.00 0.03 0.03 77 1012.6
20260507150034 57 0 0.0 0.0 0.00 0.03 0.03 78 1012.6
20260507144544 56 0 0.0 5.0 0.00 0.03 0.03 77 1012.7
20260507143035 56 0 0.0 5.0 0.00 0.03 0.03 79 1012.7
20260507141531 57 0 0.0 3.0 0.00 0.03 0.03 80 1012.8
20260507140037 56 0 0.0 0.0 0.00 0.03 0.03 79 1012.8
20260507134537 56 0 0.0 2.0 0.00 0.03 0.03 80 1012.7
20260507133034 56 0 0.0 0.0 0.00 0.03 0.03 79 1012.8
20260507131533 56 0 0.0 0.0 0.00 0.03 0.03 80 1012.6
20260507130039 55 0 0.0 0.0 0.00 0.03 0.03 79 1012.5
20260507124536 55 0 0.0 0.0 0.00 0.03 0.03 80 1012.5
20260507123041 55 0 0.0 0.0 0.00 0.03 0.03 81 1012.5
20260507121538 54 0 0.0 0.0 0.00 0.03 0.03 81 1012.4
20260507120032 54 0 0.0 0.0 0.00 0.03 0.03 82 1012.6
20260507114532 54 0 0.0 0.0 0.00 0.03 0.03 82 1012.8
20260507113037 54 0 0.0 0.0 0.00 0.03 0.03 82 1012.4
20260507111538 54 0 0.0 0.0 0.00 0.03 0.03 84 1012.0
20260507110038 54 0 0.0 0.0 0.00 0.03 0.03 86 1011.9